DELTA 1 DEB, 29184

Orbit data source: Space-Track

DELTA 1 DEB, 29184 is space debris in LEO originally from a launch on Thu, 11 Jan 1968 UTC launched from the Air Force Western Test Range (AFWTR). Debris objects in space refer to the collection of defunct objects orbiting the Earth. Examples of debris include non-operational satellites, rocket bodies, and fragments generated from explosions, collisions, or faulty payload assembly.

Loading next visibility...
Identifier
29184, 1968-002H
Orbit
LEO
Last TLE update
6 days ago
Origin
Manufacturer
Unknown
Mission
Spacecraft
Bus & Motor
Unknown
Mass
Unknown
Launch date (UTC)
1968-01-11 (57 years ago)
Launch vehicle
Unknown
Launch site
Air Force Western Test Range (AFWTR)
Object type
Payload
Rocket body
Debris
Shape & HBR
Unknown
Radar Cross Section
Small (<0.1 m²)

Expand to show TLE details & history

TLE from 6 days ago
0 DELTA 1 DEB
1 29184U 68002H   25157.89099016  .00001171  00000-0  27795-2 0  9994
2 29184 105.8281  23.4007 0259123 148.1847 213.5189 13.16036917509169
Epoch: 2025-06-06T21:23Z
TLE epoch observation values (Epoch: 2025-06-06T21:23:01.549Z)
Latitude
-0.00007°
Longitude
167.10551°
Altitude
1,367.607 km
Speed
7.097 km/s
True Right ascension
01h 33m 36s
True Declination
0° 00' 00"
Sunlit
Object was in daylight at epoch
Visualization orbit readout
Latitude
43.04722°
Longitude
160.43372°
Altitude
1,211.581 km
Speed
7.25 km/s
Apparent Right ascension
21h 01m 04s
Apparent Declination
26° 09' 59"
Sunlit
Object is in daylight
Visualization observer readout
Local Sidereal Time
02:40:27
Azimuth
287.77° WNW
Elevation
20.17°
Doppler factor
1
Orbital elements
Apogee altitude
1,393.947 km
Perigee altitude
1,001.335 km
Semi-major axis
7,575.778 km
Eccentricity
0.02591
Inclination
105.8281°
RAAN
23.4007°
Arg. of periapsis
148.1847°
True anomaly
Unknown
Mean anomaly
213.5189°
Eccentric anomaly
Unknown
Mean motion
3.29156 °/min
Orbital period
109.37 mins
BSTAR
0.0027795
Loading maneuver chart data...
Loading SW <> Apogee altitude chart data...
Loading historical data...
Loading historical data...
Loading historical data...
Loading historical data...
Loading historical data...
Loading historical data...
Loading historical data...

DELTA 1 DEB Visibility forecast

Observer location: undefined°, undefined°

Span
Click to sort rows by Start time (UTC) header in descending order
Start Az.
Max El. time (UTC)
Max El. Az.
Max El.
End time (UTC)
End Az.
9 mins2025-06-13 03:36:57.788Z49.375° ENE2025-06-13 03:40:57.788Z100.996° ESE28.264°2025-06-13 03:45:57.788Z164.006° S
9 mins2025-06-13 05:23:57.788Z2.67° NNE2025-06-13 05:27:57.788Z309.607° NW32.658°2025-06-13 05:32:57.788Z238.823° WSW
12 mins2025-06-13 14:03:57.788Z128.4° SE2025-06-13 14:09:57.788Z48.64° ENE37.292°2025-06-13 14:15:57.788Z348.039° N
10 mins2025-06-13 15:51:57.788Z202.807° SW2025-06-13 15:56:57.788Z260.943° W28.661°2025-06-13 16:01:57.788Z313.499° NW
|